Location: Bannatyne
(13.0833°N, 59.5333°W)
Time: 13:58:22
(UTC+00:00)

Vanguard 2 Rocket - Pass Details

Date: 24 January 2020
Orbit: 554 x 3326 km, 32.9° (Epoch: 04 April)

Event Time Altitude Azimuth Distance (km) Brightness Sun altitude
Rises 14:57:56 0° 304° (NW) 4,544 10.2 53.1°
Reaches altitude 10° 15:00:26 10° 305° (NW) 3,850 9.9 53.4°
Maximum altitude 15:11:24 81° 33° (NNE) 2,391 10.0 54.6°
Drops below altitude 10° 15:30:01 10° 120° (ESE) 6,127 11.6 56.2°
Sets 15:35:11 0° 121° (ESE) 7,277 11.8 56.6°
